Location: Clifton Park
(41.4873°N, 81.8024°W)
Time: 15:35:04
(UTC+00:00)

Atlas Centaur 2 - Pass Details

Date: 21 January 2020
Orbit: 459 x 1310 km, 30.4° (Epoch: 20 February)

Event Time Altitude Azimuth Distance (km) Brightness Sun altitude
Rises 00:21:49 0° 219° (SW) 3,029 5.8 -21.1°
Reaches altitude 10° 00:24:41 10° 200° (SSW) 2,266 4.8 -21.6°
Maximum altitude 00:28:22 19° 157° (SSE) 1,926 3.9 -22.3°
Enters shadow 00:29:11 18° 147° (SSE) 1,991 3.9 -22.5°
